Location: Unspecified
(35.1122°N, 0.0000°E)
Time: 06:27:10
(UTC+00:00)

Cosmos 2360 - Visible Passes

Search period start: 04 April 2026 00:00
Search period end: 14 April 2026 00:00
Orbit: 848 x 854 km, 70.7° (Epoch: 29 March)

Date Brightness Start Highest point End Pass type
(mag) Time Alt. Az. Time Alt. Az. Time Alt. Az.
4 Apr 5.5 02:33:09 10° N 02:37:02 36° NNE 02:37:02 36° NNE visible
4 Apr 6.1 04:18:20 10° NW 04:18:54 12° WNW 04:18:54 12° WNW visible
5 Apr 6.0 02:20:52 10° N 02:23:28 26° N 02:23:28 26° N visible
6 Apr 6.3 02:08:35 10° N 02:10:25 20° N 02:10:25 20° N visible
7 Apr 6.5 01:56:17 10° N 01:57:38 17° N 01:57:38 17° N visible
8 Apr 6.7 01:44:01 10° N 01:45:01 15° N 01:45:01 15° N visible
9 Apr 6.8 01:31:43 10° N 01:32:31 14° N 01:32:31 14° N visible
10 Apr 6.8 01:19:26 10° N 01:20:06 13° N 01:20:06 13° N visible
11 Apr 6.9 01:07:09 10° N 01:07:44 13° N 01:07:44 13° N visible
12 Apr 6.9 00:54:52 10° N 00:55:25 13° N 00:55:25 13° N visible
13 Apr 6.9 00:42:35 10° N 00:43:09 13° N 00:43:09 13° N visible
